www.pogodaiklimat.ru

Погода и климат >> Архив погоды >> Никарагуа >> Манагуа


ПОГОДА в Манагуа

  • Прогноз погоды в Манагуа
  • Монитор погоды в Манагуа

АРХИВ ПОГОДЫ в Манагуа

Время (UTC), дата Ветер
(напр.,м/с)
 
Видим.   Явления Облачность Т
(С)
Тd
(С)
f
(%)
Тe
(С)
Тes
(С)
Комфортность P
(гПа)
Po
(гПа)
Тmin
(С)
Tmax
(С)
R
(мм)
R24
(мм)
S
(см)
15 16.09 В 5 12 км 6/1 870 м
[Cu hum Ac trans Ci sp]
+28.2 +23.6 76 +38 +43 очень
душно
1013.3 1007.0
18 16.09 ЮВ 4 12 км 6/4 720 м
[Cu hum Ac trans Ci fib]
+31.2 +23.6 64 +42 +49 опасность
перегрева
1012.1 1006.0 +23.8 +31.8
21 16.09 ЮВ 4 12 км 9/1 800 м
[Cb calv Ac trans]
+31.8 +23.6 62 +43 +46 опасность
перегрева
1008.2 1002.0
00 17.09 ЮВ 2 9000 м гроза, ливневой дождь 10/4 750 м
[Cb cap Ac As]
+24.6 +23.3 92 +33 +33 очень
душно
1010.5 1004.2 +23.8 +32.3 14
03 17.09 Ю 2 12 км зарница {гроза, морось} 9/3 600 м
[Cb cap Ac trans Ci ing]
+25.4 +24.3 94 +35 +35 очень
душно
1011.4 1005.1
06 17.09 Ю 2 12 км зарница {морось} 10/9 600 м
[Cb cap Ac trans]
+25.6 +24.5 94 +36 +36 очень
душно
1011.7 1005.5 +23.8 +32.3 0.2
09 17.09 штиль 0 12 км 10/4 660 м
[Cu hum Ac As Ci sp]
+25.6 +24.5 94 +36 +36 очень
душно
1010.6 1004.4
12 17.09 Ю 2 12 км 9/5 600 м
[Cb cap Ac trans Ci ing]
+25.4 +24.3 94 +35 +35 очень
душно
1012.3 1006.0 +25.2 +32.3
15 17.09 В 3 9000 м гроза без осадков 8/5 660 м
[Cb cap Ac trans]
+29.4 +24.2 74 +41 +44 опасность
перегрева
1013.7 1007.4
18 17.09 В 2 12 км {гроза} 8/4 720 м
[Cu med, cong Ac lent Ci ing]
+31.2 +24.5 68 +44 +52 опасность
перегрева
1012.1 1005.9 +25.2 +31.8
21 17.09 ЮВ 3 12 км 9/5 600 м
[Cu med, cong Ac trans]
+33.4 +23.0 55 +44 +46 опасность
перегрева
1008.9 1002.7
12 18.09 штиль 0 8000 м дымка 4/1 600 м
[Cu med, cong Ci fib]
+23.8 +23.3 97 +32 +32 очень
душно
1011.7 1005.4 +23.8 +34.2
15 18.09 В 2 12 км 4/3 660 м
[Cu med, cong Ci fib]
+29.4 +23.9 72 +40 +49 очень
душно
1012.5 1006.2
18 18.09 В 5 12 км 5/4 750 м
[Cu med, cong Ci fib]
+33.4 +22.4 53 +43 +49 опасность
перегрева
1009.8 1003.6 +23.8 +33.6
21 18.09 ЮВ 4 12 км 4/3 750 м
[Cu med, cong Ci fib]
+34.4 +22.3 49 +43 +47 опасность
перегрева
1007.0 1000.8
12 19.09 ЮВ 2 12 км {гроза} 9/4 660 м
[Cb cap Ac trans Ci ing]
+23.8 +23.3 97 +32 +32 очень
душно
1009.2 1003.0 +23.2 +34.6 13
15 19.09 ЮВ 3 12 км 8/1 660 м
[Cu hum Ac trans Ci]
+29.6 +23.6 70 +40 +46 очень
душно
1010.2 1004.0
18 19.09 В 4 12 км 8/3 720 м
[Cu med, cong Ac trans Ci sp]
+31.8 +21.5 54 +40 +46 очень
душно
1009.2 1003.0 +23.0 +32.2
21 19.09 В 3 12 км 6/3 600 м
[Cb calv Ac trans Ci sp]
+33.4 +22.4 53 +43 +47 опасность
перегрева
1006.8 1000.2
12 20.09 штиль 0 12 км в посл. час морось {гроза, дождь} 9/3 600 м
[Cb calv As op Ci sp]
+23.4 +22.3 94 +32 +32 очень
душно
1010.5 1004.3 +23.4 +33.8 6
15 20.09 З 2 12 км 8/1 600 м
[Cu hum Ac trans Ci sp]
+26.6 +22.5 78 +35 +42 очень
душно
1010.6 1004.4
18 20.09 В 3 12 км 6/3 600 м
[Cb calv Ci sp]
+31.4 +23.5 63 +42 +54 опасность
перегрева
1008.9 1002.7 +23.4 +31.4
21 20.09 ЮВ 2 12 км 8/4 600 м
[Cb cap Ci ing]
+33.6 +22.0 51 +42 +47 опасность
перегрева
1006.4 1000.2
00 21.09 ЮЗ 2 8000 м гроза без осадков 9/6 600 м
[Cb cap As op]
+25.4 +24.0 92 +35 +35 очень
душно
1009.1 1002.8 +23.4 +34.0 8
03 21.09 штиль 0 12 км 8/4 660 м
[Sc Ac trans Ci sp]
+25.2 +23.9 93 +35 +35 очень
душно
1010.9 1004.7
06 21.09 штиль 0 7000 м дымка {гроза} 9/6 600 м
[Sc Ac trans Ci sp]
+25.2 +24.1 94 +35 +35 очень
душно
1010.6 1004.4 +23.4 +34.0
12 21.09 В 2 7000 м дымка 9/5 600 м
[Cb calv Ac trans Ci sp]
+25.0 +24.2 95 +34 +34 очень
душно
1011.2 1005.0 +24.4 +34.0
15 21.09 СВ 2 9000 м мгла 6/3 600 м
[Cu med, cong Ac trans Ci sp]
+28.2 +23.1 74 +38 +44 очень
душно
1013.3 1007.0
18 21.09 З 2 6000 м дождь 10/8 540 м
[Cu med, cong Ac trans]
+24.6 +23.8 95 +33 +35 очень
душно
1012.1 1005.8 +24.4 +29.2 20
21 21.09 С 2 12 км {морось} 4/1 600 м
[Cb calv Ac trans Ci sp]
+29.2 +23.6 72 +40 +47 очень
душно
1008.5 1002.3
12 22.09 Ю 2 7000 м дымка 9/3 300 м
[Frnb Ac trans Ci sp]
+24.2 +23.6 96 +33 +33 очень
душно
1011.8 1005.5 +24.0 +30.8 2
15 22.09 СЗ 2 8000 м мгла 9/9 600 м
[Cu med, cong]
+27.2 +24.7 86 +39 +40 очень
душно
1012.9 1006.7
18 22.09 СВ 2 9000 м мгла 9/4 660 м
[Cu med, cong Ac As]
+30.2 +24.5 72 +43 +48 опасность
перегрева
1011.2 1005.0 +24.0 +30.8
21 22.09 Ю 2 9000 м гроза, ливневой дождь 9/5 600 м
[Cb cap Ac As]
+26.0 +24.4 91 +36 +38 очень
душно
1009.2 1002.9
12 23.09 ЮВ 2 8000 м дымка 8/1 600 м
[Cb cap Ac trans Ci ing]
+23.4 +22.9 97 +33 +33 очень
душно
1011.8 1005.5 +23.4 +30.8

 

Местоположение метеостанции Манагуа (Никарагуа): широта 12.15 долгота -86.17 высота над уровнем моря 56 м.

В архиве по умолчанию представлена погода в Манагуа за последнюю неделю. Архивные данные за месяц целиком и за предыдущие месяцы, начиная с января 2011 года, Вы можете получить, выбрав интересующий диапазон дат из раскрывающегося списка и нажав кнопку "Ввод!".


*Определитесь, кто Вы:
робот инопланетянин человек

Внимание! Время в таблицах - всемирное. Для получения местного времени необходимо прибавить поправку, которая равна -6 ч.

Смотрите также архив погоды в соседних городах и на ближайших метеорологических станциях:

Погода в Хуигальпе (Никарагуа) (87 км)
Погода в Ривасе (Никарагуа) (89 км)
Погода в Хинотеге (Никарагуа) (105 км)
Погода в Чинандеге (Никарагуа) (117 км)
Погода в Чолутеке (Гондурас) (168 км)
Погода в Либерии (Коста-Рика) (188 км)
Погода в Амапале (Гондурас) (203 км)
Погода в Тегусигальпе (Гондурас) (239 км)
Погода в Блуфилдсе (Никарагуа) (262 км)
Погода в Катакамасе (Гондурас) (307 км)

Пояснения к столбцам:

Ветер - указаны скорость ветра в м/с - средняя за 10 мин, порывы в срок и между сроками (в фигурных скобках) и направление, откуда дует ветер: С - северный, СВ - северо-восточный, В - восточный, ЮВ - юго-восточный, Ю - южный, ЮЗ - юго-западный, З - западный, СЗ - северо-западный.
Видимость - горизонтальная дальность видимости в метрах или километрах. При видимости от 1 до 10 км при отсутствии осадков обычно наблюдается дымка, при ухудшении видимости до 1 км и менее - туман. В сухую погоду видимость может ухудшаться дымом, пылью или мглою.
Явления - указаны атмосферные явления, наблюдавшиеся в срок или в последний час перед сроком; фигурными скобками обозначены явления, наблюдавшиеся между сроками (за 1-3 часа до срока); квадратными скобками обозначены град или гололедные отложения с указанием их диаметра в мм.
Облачность - указаны через наклонную черту общая и нижняя облачность в баллах и высота нижней границы облаков в метрах; квадратными скобками обозначены формы облаков: Ci - перистые, Cs - перисто-слоистые, Cc - перисто-кучевые, Ac - высококучевые, As - высокослоистые, Sc - слоисто-кучевые, Ns - слоисто-дождевые, Cu - кучевые, Cb - кучево-дождевые. Подробнее классификацию облаков см. в Атласе облаков (PDF).
T - Температура воздуха - температура, измеренная на высоте 2 м над землей.
Td - Температура точки росы - температура, при понижении до которой содержащийся в воздухе водяной пар достигнет насыщения.
f - Относительная влажность воздуха - влажноcть воздуха, измеренная на высоте 2 м над землей.
Te - Эффективная температура - температура, которую ощущает одетый по сезону человек в тени. Характеристика душности погоды. При расчете учитывается влияние влажности воздуха и скорости ветра на теплоощущения человека.
Tes - Эффективная температура на солнце - температура, которую ощущает человек, с поправкой на солнечный нагрев. Характеристика знойности погоды. Зависит от высоты солнца над горизонтом, облачности и скорости ветра. Ночью, в пасмурную погоду, а также при ветре 12 м/с и более поправка равна нулю.
P - Атмосферное давление - приведенное к уровню моря атмосферное давление.
Po - Атмосферное давление - измеренное на уровне метеостанции атмосферное давление.
Tmin - Минимальная температура - минимум температуры воздуха на высоте 2 м над землей.
Tmax - Максимальная температура - максимум температуры воздуха на высоте 2 м над землей.
R - Количество осадков - Количество выпавших осадков за период времени, мм. При наведении курсора мыши на число - период времени, за который выпало указанное количество осадков.
R24 - Количество осадков - Количество выпавших осадков за 24 часа, мм.
S - Снежный покров - Высота снежного покрова, см. При наведении курсора мыши на число - состояние снежного покрова и степень покрытия местности в баллах.